Weather reports worldwide

Advertisment
Missoula MT/Bell Field, United States of America (72773): temperature & dewpoint: 09.12.2019 12:00:00 - 15.12.2019 12:00:00 (MST)Missoula MT/Bell Field, United States of America (72773): wind speed: 09.12.2019 12:00:00 - 15.12.2019 12:00:00 (MST)Missoula MT/Bell Field, United States of America (72773): wind direction: 09.12.2019 12:00:00 - 15.12.2019 12:00:00 (MST)Missoula MT/Bell Field, United States of America (72773): reduced air pressure: 09.12.2019 12:00:00 - 15.12.2019 12:00:00 (MST)Missoula MT/Bell Field, United States of America (72773): visibility: 09.12.2019 12:00:00 - 15.12.2019 12:00:00 (MST)Missoula MT/Bell Field, United States of America (72773): precipitation: 09.12.2019 12:00:00 - 15.12.2019 12:00:00 (MST)
Date & Time tt [°C] td [°C] ff [km/h] ff [kn] dd ppp [hPa] vv [km] rr [mm]
15.12.2019 12:00:00 -1,1 -3,3 0 0 N 1017,6 16 -
15.12.2019 11:00:00 -3,3 -4,4 0 0 N 1017,2 16 -
15.12.2019 10:00:00 -3,3 -4,4 8 4 ESE 1017,0 16 0,0
15.12.2019 09:00:00 -3,3 -4,4 5 3 SSE 1016,5 4,0 0,0
15.12.2019 08:00:00 -2,8 -3,9 5 3 ENE 1015,6 4,8 0,0
15.12.2019 07:00:00 -2,8 -3,9 0 0 N 1015,2 3,2 0,3
15.12.2019 06:00:00 -2,8 -4,4 0 0 N 1015,1 1,6 0,0
15.12.2019 05:00:00 -3,3 -4,4 0 0 N 1014,9 4,8 0,0
15.12.2019 04:00:00 -3,9 -4,4 0 0 N 1015,0 4,0 0,0
15.12.2019 03:00:00 -4,4 -5,0 5 3 NNE 1015,0 2,0 -
15.12.2019 02:00:00 -3,9 -5,0 0 0 N 1014,5 11 -
15.12.2019 01:00:00 -4,4 -5,0 0 0 N 1014,8 10 -
15.12.2019 00:00:00 -3,9 -5,0 0 0 N 1015,0 16 -
14.12.2019 23:00:00 -1,7 -2,8 0 0 N 1014,3 10 0,0
14.12.2019 22:00:00 -2,2 -3,3 0 0 N 1014,2 4,8 0,0
14.12.2019 21:00:00 -2,2 -2,8 0 0 N 1014,3 8 0,0
14.12.2019 20:00:00 -1,7 -2,8 8 4 ENE 1014,2 11 0,5
14.12.2019 19:00:00 -0,6 -1,7 11 6 NW 1014,0 0,8 0,0
14.12.2019 18:00:00 -0,6 -1,7 0 0 N 1014,2 2,0 0,0
14.12.2019 17:00:00 0,0 -2,2 0 0 N 1013,9 1,2 0,0
14.12.2019 16:00:00 0,0 -2,2 11 6 ESE 1013,6 16 -
14.12.2019 15:00:00 0,0 -2,2 9 5 SSE 1013,4 16 -
14.12.2019 14:00:00 0,0 -2,2 11 6 SE 1013,5 16 -
14.12.2019 13:00:00 0,0 -2,2 8 4 ESE 1013,6 16 0,0
14.12.2019 12:00:00 -0,6 -2,2 9 5 SE 1014,1 11 0,0
14.12.2019 11:00:00 0,0 -1,7 5 3 E 1014,2 16 -
14.12.2019 10:00:00 -1,1 -1,7 0 0 N 1013,9 16 -
14.12.2019 09:00:00 -1,1 -1,7 0 0 N 1013,7 11 0,3
14.12.2019 08:00:00 -1,1 -2,2 0 0 N 1013,3 3,2 0,0
14.12.2019 07:00:00 -0,6 -1,7 5 3 NW 1013,0 3,2 1,0
14.12.2019 06:00:00 -1,1 -2,2 5 3 N 1012,8 3,2 0,0
14.12.2019 05:00:00 -1,7 -2,2 5 3 - 1012,7 8 0,0
14.12.2019 04:00:00 -1,1 -1,7 0 0 N 1012,8 1,2 0,0
14.12.2019 03:00:00 -1,1 -1,7 5 3 - 1013,1 3,2 0,0
14.12.2019 02:00:00 -1,1 -1,7 0 0 N 1013,2 2,0 0,0
14.12.2019 01:00:00 0,0 -0,6 0 0 N 1013,4 1,2 0,3
14.12.2019 00:00:00 -0,6 -1,7 9 5 W 1013,7 1,6 0,3
13.12.2019 23:00:00 0,0 -1,7 9 5 W 1014,0 8 0,0
13.12.2019 22:00:00 -0,6 -2,2 8 4 W 1014,2 16 -
13.12.2019 21:00:00 0,0 -2,2 0 0 N 1014,7 16 -
13.12.2019 20:00:00 0,0 -1,1 0 0 N 1015,3 16 0,0
13.12.2019 19:00:00 0,6 -1,1 0 0 N 1015,8 6 0,0
13.12.2019 18:00:00 1,1 -0,6 0 0 N 1016,1 16 -
13.12.2019 17:00:00 1,1 -0,6 0 0 N 1016,4 16 -
13.12.2019 16:00:00 3,3 -1,7 0 0 N 1016,6 16 0,0
13.12.2019 15:00:00 2,8 -0,6 8 4 N 1017,0 16 0,0
13.12.2019 14:00:00 2,8 0,0 9 5 NE 1017,6 16 0,3
13.12.2019 13:00:00 3,3 -0,6 0 0 N 1017,8 16 0,0
13.12.2019 12:00:00 2,8 0,0 5 3 NW 1018,5 16 -
13.12.2019 11:00:00 1,1 0,0 0 0 N 1019,4 16 0,0
13.12.2019 10:00:00 0,6 -0,6 5 3 WNW 1019,1 15 -
13.12.2019 09:00:00 0,6 -1,1 0 0 N 1018,8 16 -
13.12.2019 08:00:00 0,6 -1,1 0 0 N 1018,4 16 -
13.12.2019 07:00:00 0,0 -1,1 5 3 SSE 1018,0 16 -
13.12.2019 06:00:00 1,1 -1,7 0 0 N 1017,2 16 -
13.12.2019 05:00:00 0,6 -1,7 0 0 N 1017,0 16 -
13.12.2019 04:00:00 1,1 -1,1 0 0 N 1016,4 16 -
13.12.2019 03:00:00 1,7 -0,6 8 4 E 1015,5 16 -
13.12.2019 02:00:00 0,6 -0,6 0 0 N 1015,0 15 -
13.12.2019 01:00:00 1,1 0,0 0 0 N 1014,5 16 -
13.12.2019 00:00:00 2,2 0,0 9 5 E 1013,9 16 0,0
12.12.2019 23:00:00 1,7 0,6 16 9 ESE 1013,9 16 0,3
12.12.2019 22:00:00 1,7 0,0 13 7 ESE 1013,8 13 0,8
12.12.2019 21:00:00 2,8 -0,6 15 8 ENE 1013,6 16 0,0
12.12.2019 20:00:00 3,3 -2,8 0 0 N 1014,2 16 -
12.12.2019 19:00:00 2,8 -2,8 5 3 W 1014,0 16 -
12.12.2019 18:00:00 3,3 -3,3 9 5 NE 1014,5 16 -
12.12.2019 17:00:00 4,4 -3,3 9 5 W 1014,9 16 -
12.12.2019 16:00:00 6,1 -3,3 22 12 WSW 1014,9 16 -
12.12.2019 15:00:00 7,8 -1,7 13 7 N 1015,0 16 -
12.12.2019 14:00:00 7,2 -1,7 22 12 W 1015,0 16 -
12.12.2019 13:00:00 4,4 0,6 15 8 W 1016,0 16 0,0
12.12.2019 12:00:00 4,4 0,6 9 5 E 1016,1 13 -
12.12.2019 11:00:00 2,8 0,0 0 0 N 1016,2 16 -
12.12.2019 10:00:00 -2,2 -2,8 0 0 N 1015,9 4,8 0,0
12.12.2019 09:00:00 -2,2 -3,3 0 0 N 1015,3 4,8 0,0
12.12.2019 08:00:00 -2,2 -3,3 8 4 WNW 1014,8 8 -
12.12.2019 07:00:00 -0,6 -2,2 8 4 E 1014,2 10 0,0
12.12.2019 06:00:00 -1,7 -2,8 0 0 N 1014,4 8 -
12.12.2019 05:00:00 -1,7 -2,8 5 3 W 1014,5 10 -
12.12.2019 04:00:00 -1,7 -3,3 0 0 N 1014,6 8 -
12.12.2019 03:00:00 -1,7 -2,8 0 0 N 1015,5 8 -
12.12.2019 02:00:00 -1,1 -2,2 0 0 N 1015,7 10 0,0
12.12.2019 01:00:00 -1,1 -1,7 0 0 N 1015,8 4,0 0,0
12.12.2019 00:00:00 -1,1 -2,2 9 5 SW 1016,6 4,8 0,0
11.12.2019 23:00:00 -2,2 -3,9 0 0 N 1017,2 15 0,0
11.12.2019 22:00:00 -1,7 -3,9 0 0 N 1017,4 16 -
11.12.2019 21:00:00 -2,2 -4,4 5 3 NE 1018,0 16 -
11.12.2019 20:00:00 -2,2 -4,4 0 0 N 1018,8 16 -
11.12.2019 19:00:00 -1,1 -3,3 11 6 NW 1018,9 16 -
11.12.2019 18:00:00 -2,2 -4,4 8 4 W 1019,3 16 -
11.12.2019 17:00:00 -0,6 -3,9 5 3 E 1019,2 16 0,0
11.12.2019 16:00:00 0,0 -3,3 0 0 N 1019,6 16 -
11.12.2019 15:00:00 0,0 -3,3 8 4 W 1019,9 16 -
11.12.2019 14:00:00 0,0 -3,3 8 4 W 1019,7 16 -
11.12.2019 13:00:00 -0,6 -3,9 0 0 N 1020,1 16 -
11.12.2019 12:00:00 -0,6 -3,3 0 0 N 1020,4 15 -
11.12.2019 11:00:00 -1,7 -3,9 0 0 N 1020,4 16 0,0
11.12.2019 10:00:00 -1,7 -3,9 9 5 W 1020,1 15 -
11.12.2019 09:00:00 -1,7 -4,4 5 3 E 1019,7 16 -
11.12.2019 08:00:00 -2,8 -3,9 0 0 N 1019,7 16 -
11.12.2019 07:00:00 -2,8 -4,4 5 3 WSW 1019,5 16 -
11.12.2019 06:00:00 -2,8 -5,0 0 0 N 1018,8 16 -
11.12.2019 05:00:00 -3,3 -5,0 5 3 S 1019,3 16 0,0
11.12.2019 04:00:00 -3,3 -5,6 0 0 N 1020,1 16 -
11.12.2019 03:00:00 -4,4 -6,7 0 0 N 1020,3 16 -
11.12.2019 02:00:00 -4,4 -6,1 0 0 N 1020,9 16 -
11.12.2019 01:00:00 -3,9 -6,1 0 0 N 1021,0 16 -
11.12.2019 00:00:00 -4,4 -6,7 5 3 WSW 1021,4 16 -
10.12.2019 23:00:00 -3,3 -6,1 0 0 N 1021,8 16 0,0
10.12.2019 22:00:00 -4,4 -6,7 0 0 N 1022,3 16 -
10.12.2019 21:00:00 -3,3 -6,1 0 0 N 1023,1 13 -
10.12.2019 20:00:00 -2,2 -5,6 5 3 N 1023,3 16 -
10.12.2019 19:00:00 -2,2 -5,6 5 3 N 1023,5 16 -
10.12.2019 18:00:00 -0,6 -4,4 0 0 N 1023,6 16 -
10.12.2019 17:00:00 -0,6 -5,0 8 4 W 1024,0 16 0,0
10.12.2019 16:00:00 3,3 -3,9 5 3 WNW 1023,6 16 -
10.12.2019 15:00:00 3,9 -3,9 0 0 N 1023,7 16 -
10.12.2019 14:00:00 2,2 -3,9 9 5 W 1024,5 16 -
10.12.2019 13:00:00 1,7 -3,9 0 0 N 1025,4 16 -
10.12.2019 12:00:00 0,6 -4,4 0 0 N 1026,3 16 -
10.12.2019 11:00:00 -0,6 -4,4 0 0 N 1026,9 16 0,0
10.12.2019 10:00:00 -2,8 -5,0 0 0 N 1027,0 16 -
10.12.2019 09:00:00 -4,4 -6,7 8 4 NW 1026,6 16 -
10.12.2019 08:00:00 -3,9 -6,1 5 3 N 1026,0 16 -
10.12.2019 07:00:00 -2,8 -5,6 0 0 ENE 1025,8 16 -
10.12.2019 06:00:00 -2,8 -5,6 5 3 SSW 1025,8 16 -
10.12.2019 05:00:00 -2,8 -5,6 0 0 N 1025,8 16 0,0
10.12.2019 04:00:00 -2,2 -5,6 0 0 N 1025,7 16 -
10.12.2019 03:00:00 -1,1 -4,4 0 0 N 1025,3 16 -
10.12.2019 02:00:00 -0,6 -4,4 0 0 N 1025,2 16 -
10.12.2019 01:00:00 -0,6 -4,4 0 0 N 1025,2 16 -
10.12.2019 00:00:00 -0,6 -4,4 0 0 N 1025,1 16 -
09.12.2019 23:00:00 0,0 -3,9 0 0 N 1025,0 16 0,0
09.12.2019 22:00:00 0,0 -5,0 0 0 N 1024,8 16 -
09.12.2019 21:00:00 1,1 -6,1 0 0 N 1024,5 16 -
09.12.2019 20:00:00 0,6 -5,6 5 3 NE 1024,8 16 -
09.12.2019 19:00:00 0,0 -4,4 5 3 ESE 1025,0 16 -
09.12.2019 18:00:00 0,6 -5,6 0 0 N 1024,7 16 -
09.12.2019 17:00:00 0,6 -5,6 5 3 SSW 1024,4 16 0,0
09.12.2019 16:00:00 1,1 -5,6 5 3 WNW 1024,1 16 -
09.12.2019 15:00:00 1,7 -6,1 5 3 W 1023,8 16 -
09.12.2019 14:00:00 1,7 -7,2 5 3 NE 1023,6 16 -
09.12.2019 13:00:00 0,6 -7,2 9 5 E 1024,1 16 -
09.12.2019 12:00:00 0,6 -7,2 13 7 SE 1024,7 16 -

tt = temperature
td = dewpoint
ff = wind speed
dd = wind direction
ppp = reduced air pressure
vv = visibility
rr = precipitation

Next stations